COSMOS 2491 DEB, 57550

Orbit data source: Space-Track

COSMOS 2491 DEB, 57550 is space debris in LEO originally from a launch on Wed, 25 Dec 2013 UTC launched from the Plesetsk Missile And Space Complex (PKMTR). Debris objects in space refer to the collection of defunct objects orbiting the Earth. Examples of debris include non-operational satellites, rocket bodies, and fragments generated from explosions, collisions, or faulty payload assembly.

Loading next visibility...
Identifier
57550, 2013-076AM
Orbit
LEO
Country
Flag of CISCIS
Related business
Manufacturer
TsNIIKhM
Mission
Spacecraft
Bus & Motor
Unknown
Mass
Unknown
Launch date (UTC)
2013-12-25 (12 years ago)
Launch vehicle
Unknown
Launch site
Plesetsk Missile And Space Complex (PKMTR)
Object type
Payload
Rocket body
Debris
Shape & HBR
Unknown
Radar Cross Section
Small (<0.1 m²)

Expand to show TLE details & history
Last TLE update: 1 week ago

TLE from 1 week ago
0 COSMOS 2491 DEB
1 57550U 13076AM  25251.81450969  .00001980  00000-0  88496-2 0  9991
2 57550  82.4582 284.0793 0184013  49.5173 312.1800 12.73365576108258
Epoch: 2025-09-08T19:32Z
TLE epoch observation values (Epoch: 2025-09-08T19:32:53.637Z)
Latitude
0.00007°
Longitude
2.74159°
Altitude
1,276.741 km
Speed
7.261 km/s
True Right ascension
18h 56m 19s
True Declination
0° 00' 00"
Sunlit
Object was in daylight at epoch
Visualization orbit readout
Latitude
Unknown
Longitude
Unknown
Altitude
Unknown
Speed
Unknown
Apparent Right ascension
Unknown
Apparent Declination
Unknown
Sunlit
N/A
Visualization observer readout
Local Sidereal Time
12:46:54
Azimuth
Unknown
Elevation
Unknown
Doppler factor
Unknown
Orbital elements
Apogee altitude
1,508.063 km
Perigee altitude
1,223.074 km
Semi-major axis
7,743.706 km
Eccentricity
0.0184
Inclination
82.4582°
RAAN
284.0793°
Arg. of periapsis
49.5173°
True anomaly
310.59313°
Mean anomaly
312.18°
Eccentric anomaly
311.38901°
Mean motion
3.18508 °/min
Orbital period
113.03 mins
BSTAR
0.0088496
Loading maneuver chart data...
Computing Atmospheric mass density...
Loading historical data...
Loading historical data...
Loading historical data...
Loading historical data...
Loading historical data...
Loading historical data...
Loading historical data...

Documentation

Showing up to 5 results
|